When you browse on this site, cookies collect data to enhance your experience and personalize the content and advertising you see.
Visit our Privacy Policy to learn more. By continuing to use the site, you agree to this use of cookies and data.
  • In Österreich
  • Länderverzeichnis
  • Für 7 Tage
  • Wassertemperatur
  • Wetterkarte
  • News
  • Widgets
  • user-avatar
    Anmelden

    Stündliche Wetter Morales

    Heute, 27 Februar, Donnerstag

    Zeit Temperatur Niederschläge Wind Luftdruck Luftfeuchtigkeit
    00:00 +15°C° 0 mm 0 m/S 624 mmHg 97%
    01:00 +15°C° 0 mm 0 m/S 624 mmHg 96%
    02:00 +14°C° 0 mm 0 m/S 624 mmHg 96%
    03:00 +14°C° 0 mm 0 m/S 623 mmHg 96%
    04:00 +14°C° 0 mm 0 m/S 623 mmHg 95%
    05:00 +15°C° 0 mm 0 m/S 623 mmHg 95%
    06:00 +15°C° 0 mm 0 m/S 624 mmHg 94%
    07:00 +15°C° 0 mm 0 m/S 624 mmHg 94%
    08:00 +17°C° 0.1 mm 0 m/S 625 mmHg 85%
    09:00 +22°C° 0.1 mm 1 m/S 626 mmHg 77%
    10:00 +24°C° 0.1 mm 1 m/S 627 mmHg 68%
    11:00 +24°C° 0.7 mm 1 m/S 627 mmHg 70%
    12:00 +24°C° 0.7 mm 1 m/S 626 mmHg 72%
    13:00 +25°C° 0.7 mm 1 m/S 625 mmHg 75%
    14:00 +24°C° 1.7 mm 1 m/S 625 mmHg 79%
    15:00 +23°C° 1.7 mm 1 m/S 624 mmHg 83%
    16:00 +22°C° 1.7 mm 1 m/S 623 mmHg 88%
    17:00 +21°C° 1.3 mm 1 m/S 623 mmHg 91%
    18:00 +20°C° 1.3 mm 1 m/S 623 mmHg 94%
    19:00 +17°C° 1.3 mm 0 m/S 623 mmHg 97%
    20:00 +17°C° 1.6 mm 0 m/S 624 mmHg 97%
    21:00 +17°C° 1.6 mm 0 m/S 624 mmHg 97%
    22:00 +17°C° 1.6 mm 0 m/S 625 mmHg 98%
    23:00 +16°C° 0.4 mm 0 m/S 625 mmHg 98%

    Morgen, 28 Februar, Freitag

    Zeit Temperatur Niederschläge Wind Luftdruck Luftfeuchtigkeit
    00:00 +16°C° 0.4 mm 0 m/S 624 mmHg 97%
    01:00 +16°C° 0.4 mm 0 m/S 624 mmHg 97%
    02:00 +16°C° 0.1 mm 0 m/S 624 mmHg 97%
    03:00 +15°C° 0.1 mm 0 m/S 623 mmHg 97%
    04:00 +15°C° 0.1 mm 0 m/S 623 mmHg 96%
    05:00 +15°C° 0 mm 0 m/S 623 mmHg 96%
    06:00 +16°C° 0 mm 0 m/S 624 mmHg 95%
    07:00 +16°C° 0 mm 0 m/S 624 mmHg 95%
    08:00 +18°C° 0.1 mm 0 m/S 625 mmHg 87%
    09:00 +20°C° 0.1 mm 0 m/S 626 mmHg 80%
    10:00 +25°C° 0.1 mm 1 m/S 627 mmHg 73%
    11:00 +24°C° 1.1 mm 1 m/S 626 mmHg 76%
    12:00 +24°C° 1.1 mm 1 m/S 625 mmHg 80%
    13:00 +24°C° 1.1 mm 1 m/S 625 mmHg 84%
    14:00 +23°C° 1.8 mm 1 m/S 624 mmHg 84%
    15:00 +23°C° 1.8 mm 1 m/S 624 mmHg 84%
    16:00 +23°C° 1.8 mm 1 m/S 623 mmHg 84%
    17:00 +22°C° 1.1 mm 1 m/S 623 mmHg 88%
    18:00 +21°C° 1.1 mm 1 m/S 623 mmHg 92%
    19:00 +19°C° 1.1 mm 1 m/S 623 mmHg 96%
    20:00 +17°C° 1.1 mm 0 m/S 624 mmHg 96%
    21:00 +17°C° 1.1 mm 0 m/S 624 mmHg 96%
    22:00 +17°C° 1.1 mm 0 m/S 625 mmHg 97%
    23:00 +17°C° 1.1 mm 0 m/S 624 mmHg 97%

    übermorgen, 29 Februar, Samstag

    Zeit Temperatur Niederschläge Wind Luftdruck Luftfeuchtigkeit
    00:00 +17°C° 1.1 mm 0 m/S 624 mmHg 97%
    01:00 +17°C° 1.1 mm 0 m/S 624 mmHg 97%
    02:00 +16°C° 0.8 mm 0 m/S 624 mmHg 97%
    03:00 +16°C° 0.8 mm 0 m/S 623 mmHg 97%
    04:00 +16°C° 0.8 mm 0 m/S 623 mmHg 97%
    05:00 +16°C° 0.3 mm 0 m/S 624 mmHg 96%
    06:00 +16°C° 0.3 mm 0 m/S 624 mmHg 96%
    07:00 +16°C° 0.3 mm 0 m/S 624 mmHg 96%
    08:00 +18°C° 0.3 mm 0 m/S 625 mmHg 91%
    09:00 +20°C° 0.3 mm 0 m/S 626 mmHg 86%
    10:00 +21°C° 0.3 mm 0 m/S 627 mmHg 82%
    11:00 +24°C° 1.7 mm 1 m/S 626 mmHg 82%
    12:00 +24°C° 1.7 mm 1 m/S 626 mmHg 83%
    13:00 +24°C° 1.7 mm 1 m/S 625 mmHg 84%
    14:00 +24°C° 1.9 mm 1 m/S 624 mmHg 86%
    15:00 +23°C° 1.9 mm 1 m/S 624 mmHg 87%
    16:00 +23°C° 1.9 mm 1 m/S 623 mmHg 89%
    17:00 +22°C° 1.1 mm 1 m/S 623 mmHg 91%
    18:00 +19°C° 1.1 mm 0 m/S 623 mmHg 94%
    19:00 +17°C° 1.1 mm 0 m/S 623 mmHg 97%
    20:00 +17°C° 0.5 mm 0 m/S 624 mmHg 97%
    21:00 +17°C° 0.5 mm 0 m/S 624 mmHg 97%
    22:00 +17°C° 0.5 mm 0 m/S 625 mmHg 97%
    23:00 +16°C° 0.2 mm 0 m/S 624 mmHg 97%

    1 März, Sonntag

    Zeit Temperatur Niederschläge Wind Luftdruck Luftfeuchtigkeit
    00:00 +16°C° 0.2 mm 0 m/S 624 mmHg 97%
    01:00 +16°C° 0.2 mm 0 m/S 623 mmHg 96%
    02:00 +16°C° 0.3 mm 0 m/S 623 mmHg 96%
    03:00 +16°C° 0.3 mm 0 m/S 623 mmHg 96%
    04:00 +15°C° 0.3 mm 0 m/S 623 mmHg 96%
    05:00 +16°C° 0.1 mm 0 m/S 623 mmHg 95%
    06:00 +16°C° 0.1 mm 0 m/S 623 mmHg 95%
    07:00 +16°C° 0.1 mm 0 m/S 624 mmHg 94%
    08:00 +18°C° 0.1 mm 0 m/S 625 mmHg 87%
    09:00 +21°C° 0.1 mm 0 m/S 626 mmHg 79%
    10:00 +25°C° 0.1 mm 1 m/S 627 mmHg 72%
    11:00 +25°C° 0.8 mm 1 m/S 626 mmHg 74%
    12:00 +25°C° 0.8 mm 1 m/S 625 mmHg 76%
    13:00 +25°C° 0.8 mm 1 m/S 625 mmHg 79%
    14:00 +24°C° 1.8 mm 1 m/S 624 mmHg 81%
    15:00 +24°C° 1.8 mm 1 m/S 623 mmHg 84%
    16:00 +24°C° 1.8 mm 1 m/S 623 mmHg 87%
    17:00 +22°C° 1.5 mm 1 m/S 623 mmHg 90%
    18:00 +21°C° 1.5 mm 1 m/S 622 mmHg 93%
    19:00 +20°C° 1.5 mm 1 m/S 622 mmHg 96%
    20:00 +19°C° 0.9 mm 1 m/S 623 mmHg 96%
    21:00 +19°C° 0.9 mm 1 m/S 623 mmHg 96%
    22:00 +19°C° 0.9 mm 1 m/S 624 mmHg 96%
    23:00 +18°C° 0.8 mm 1 m/S 623 mmHg 96%

    2 März, Montag

    Zeit Temperatur Niederschläge Wind Luftdruck Luftfeuchtigkeit
    00:00 +18°C° 0.8 mm 1 m/S 623 mmHg 96%
    01:00 +18°C° 0.8 mm 1 m/S 623 mmHg 95%
    02:00 +18°C° 0.5 mm 1 m/S 623 mmHg 95%
    03:00 +18°C° 0.5 mm 1 m/S 622 mmHg 95%
    04:00 +16°C° 0.5 mm 1 m/S 622 mmHg 95%
    05:00 +16°C° 0 mm 0 m/S 622 mmHg 94%
    06:00 +16°C° 0 mm 0 m/S 623 mmHg 94%
    07:00 +16°C° 0 mm 0 m/S 623 mmHg 94%
    08:00 +18°C° 0 mm 0 m/S 624 mmHg 85%
    09:00 +23°C° 0 mm 1 m/S 625 mmHg 77%
    10:00 +25°C° 0 mm 1 m/S 626 mmHg 69%
    11:00 +25°C° 0.5 mm 1 m/S 626 mmHg 71%
    12:00 +25°C° 0.5 mm 1 m/S 625 mmHg 72%
    13:00 +25°C° 0.5 mm 1 m/S 624 mmHg 74%
    14:00 +25°C° 1.7 mm 1 m/S 624 mmHg 79%
    15:00 +24°C° 1.7 mm 1 m/S 623 mmHg 83%
    16:00 +23°C° 1.7 mm 1 m/S 622 mmHg 88%
    17:00 +22°C° 1.4 mm 1 m/S 622 mmHg 90%
    18:00 +21°C° 1.4 mm 1 m/S 622 mmHg 93%
    19:00 +19°C° 1.4 mm 1 m/S 622 mmHg 96%
    20:00 +19°C° 0.8 mm 1 m/S 623 mmHg 96%
    21:00 +19°C° 0.8 mm 1 m/S 623 mmHg 96%
    22:00 +18°C° 0.8 mm 1 m/S 624 mmHg 96%
    23:00 +18°C° 0 mm 1 m/S 623 mmHg 95%

    3 März, Dienstag

    Zeit Temperatur Niederschläge Wind Luftdruck Luftfeuchtigkeit
    00:00 +18°C° 0 mm 1 m/S 623 mmHg 95%
    01:00 +16°C° 0 mm 1 m/S 622 mmHg 95%
    02:00 +15°C° 0 mm 0 m/S 622 mmHg 95%
    03:00 +15°C° 0 mm 0 m/S 622 mmHg 95%
    04:00 +15°C° 0 mm 0 m/S 621 mmHg 95%
    05:00 +15°C° 0 mm 0 m/S 622 mmHg 94%
    06:00 +15°C° 0 mm 0 m/S 622 mmHg 94%
    07:00 +16°C° 0 mm 0 m/S 623 mmHg 93%
    08:00 +18°C° 0 mm 0 m/S 624 mmHg 85%
    09:00 +21°C° 0 mm 0 m/S 625 mmHg 77%
    10:00 +23°C° 0 mm 0 m/S 626 mmHg 68%
    11:00 +25°C° 0.5 mm 1 m/S 625 mmHg 72%
    12:00 +25°C° 0.5 mm 1 m/S 624 mmHg 76%
    13:00 +24°C° 0.5 mm 1 m/S 624 mmHg 79%
    14:00 +24°C° 1.8 mm 1 m/S 623 mmHg 82%
    15:00 +24°C° 1.8 mm 1 m/S 623 mmHg 85%
    16:00 +23°C° 1.8 mm 1 m/S 622 mmHg 88%
    17:00 +22°C° 1.4 mm 1 m/S 622 mmHg 90%
    18:00 +21°C° 1.4 mm 1 m/S 622 mmHg 93%
    19:00 +19°C° 1.4 mm 1 m/S 622 mmHg 96%
    20:00 +19°C° 0.8 mm 1 m/S 622 mmHg 96%
    21:00 +19°C° 0.8 mm 1 m/S 623 mmHg 96%
    22:00 +19°C° 0.8 mm 1 m/S 623 mmHg 96%
    23:00 +18°C° 0.4 mm 1 m/S 623 mmHg 96%
    Mehr zeigen